Regional Weather Roundup
Issued by NWS Austin/San Antonio, TX

Home | Current Version | Previous Version | Text Only | Print | Product List | Glossary On
Versions: 1 2 3 4 5 6 7 8 9 10 11 12 13 14 15 16 17 18 19 20 21 22 23 24 25 26 27 28 29 30 31 32 33 34 35 36 37 38 39 40 41 42 43 44 45 46 47 48 49 50
000
ASUS44 KEWX 231901
RWREWX
SOUTH TEXAS REGIONAL WEATHER ROUNDUP
NATIONAL WEATHER SERVICE AUSTIN/SAN ANTONIO TX
200 PM CDT SAT JUN 23 2018

NOTE: "FAIR" INDICATED FEW OR NO CLOUDS BELOW 12,000 FEET WITH NO
SIGNIFICANT WEATHER AND/OR OBSTRUCTIONS TO VISIBILITY.

* - THESE STATIONS ARE NOT NWS OR FAA STATIONS...AND ARE NOT SUBJECT
    TO NWS AND FAA QUALITY CONTROL.

TXZ171-172-183>190-232000-
TEXAS HILL COUNTRY AND EDWARDS PLATEAU

CITY           SKY/WX    TMP DP  RH WIND       PRES   REMARKS
JUNCTION       SUNNY     97  68  38 SW12G22   29.79F HX 102
*LLANO         SUNNY     99  66  34 S13G25    29.82F HX 102
BURNET         SUNNY     95  67  39 S12G23    29.84F HX  99
*HORSESHOE BAY SUNNY     96  65  35 S13G22    29.81F HX  98
*KERRVILLE     SUNNY     97  69  40 S21       29.83F HX 102
*FREDERICKSBRG SUNNY     96  63  32 S14G25    29.83F HX  97
*ROCKSPRINGS   SUNNY     91  70  49 SE16G24   29.89F HX  97
*BOERNE STAGE  MOSUNNY   91  68  46 S12G18    29.85F HX  95
*CASTROVILLE   SUNNY     98  66  35 S15G23    29.81F HX 101
HONDO          MOSUNNY   99  73  43 S17G26    29.80F HX 109
*UVALDE        SUNNY     96  70  43 SE15      29.78F HX 102
DEL RIO        SUNNY     99  73  43 SE15G26   29.73F HX 109
LAUGHLIN AFB   MOSUNNY   99  71  39 S16G23    29.73F HX 107
CARRIZO SPRGS  SUNNY     99  70  39 SE14G20   29.74F HX 105
*EAGLE PASS    CLEAR    100  68  34 S13G20    29.75F HX 106
*FAITH RANCH   SUNNY     99  72  41 SE13G24   29.76F HX 107
$$

TXZ173-191>194-202-209-217>225-228-232000-
CENTRAL AND SOUTH CENTRAL TEXAS

CITY           SKY/WX    TMP DP  RH WIND       PRES   REMARKS
GEORGETOWN     MOSUNNY   93  71  48 SE10G20   29.84F HX 100
AUSTIN/BERGSTM SUNNY     97  70  41 S16G25    29.80F HX 103
AUSTIN/MABRY   SUNNY     97  68  38 S9G20     29.82F HX 102
*AUSTIN/EXEC   SUNNY     91  72  52 S9        29.83F HX  98
*LAGO VISTA    SUNNY     94  67  40 S9G17     29.84F HX  97
SAN MARCOS     SUNNY     95  72  47 S17       29.82F HX 103
NEW BRAUNFELS  SUNNY     97  71  42 S16G26    29.80F HX 104
RANDOLPH AFB   PTSUNNY   96  72  46 S15G22    29.81F HX 104
PT SAN ANTONIO MOSUNNY   97  70  41 S15G23    29.78F HX 103
SAN ANTONIO    MOSUNNY   96  70  42 SE14G26   29.81F HX 102
STINSON FIELD  MOSUNNY   98  73  44 SE15G21   29.78F HX 108
*LA GRANGE     PTSUNNY   93  74  54 S9G16     29.82F HX 103
*GIDDINGS      MOSUNNY   91  71  51 S8        29.86F HX  97
*GONZALES      MOSUNNY   94  74  53 S10G16    29.82F HX 104
$$

TXZ163>164-176>182-195>201-210>213-226-227-235-232000-
SOUTHEAST TEXAS

CITY           SKY/WX    TMP DP  RH WIND       PRES   REMARKS
COLLEGE STN    PTSUNNY   90  73  57 SE17      29.85F HX  98
*BRYAN         MOSUNNY   90  73  56 SE13      29.86F HX  98
*CALDWELL      PTSUNNY   91  72  53 S15       29.85F HX  98
*CROCKETT      MOSUNNY   91  73  55 S6        29.91F HX 100
*BRENHAM       MOSUNNY   92  73  52 S9        29.86F HX 101
HUNTSVILLE     MOSUNNY   92  73  53 S9        29.88F HX 100
CONROE         MOSUNNY   91  74  57 S7        29.88F HX 100
HOUSTON BUSH   PTSUNNY   94  75  54 S10G17    29.87F HX 105
HOUSTON HOBBY  PTSUNNY   92  77  61 S13       29.87F HX 105
*HOUSTON SW AP FAIR      91  77  64 S8G17     29.88F HX 104
PEARLAND       PTSUNNY   90  78  68 S12       29.89F HX 104
HOUSTON HOOKS  PTSUNNY   92  75  57 S8        29.87F HX 103
ELLINGTON FLD  PTSUNNY   91  77  62 S15       29.89F HX 105
SUGAR LAND     FAIR      94  75  54 S17       29.87F HX 105
*HOUSTON EXEC    N/A    N/A N/A N/A MISG        N/A
*CLEVELAND MUN PTSUNNY   93  70  46 S10       29.88F HX  99
*WHARTON       MOSUNNY   89  73  59 S15       29.87F HX  97
*COLUMBUS      FAIR      90  73  56 SE10G17   29.85F HX  98
*EAGLE LAKE    CLOUDY    90  78  67 S13G20    29.85F HX 104
$$

TXZ214>216-236>238-232000-
THE UPPER TEXAS COAST

CITY           SKY/WX    TMP DP  RH WIND       PRES   REMARKS
*ORANGE        PTSUNNY   87  79  76 S10       29.93F HX 102
PORT ARTHUR    PTSUNNY   90  75  61 S18G26    29.91F HX 100
GALVESTON      PTSUNNY   88  79  74 S17       29.92F HX 103
ANGLETON       PTSUNNY   90  76  63 S17       29.89S HX 101
*BAY CITY      PTSUNNY   89  78  70 S14G20    29.88F HX 103
PALACIOS       MOSUNNY   89  80  74 S14G25    29.86F HX 106
$$

TXZ229>234-239>247-232000-
TEXAS COASTAL BEND AND RIO GRANDE PLAINS

CITY           SKY/WX    TMP DP  RH WIND       PRES   REMARKS
VICTORIA       PTSUNNY   90  73  57 S16       29.85S HX  98
*BEEVILLE      MOSUNNY   91  76  60 S15       29.81F HX 102
ROCKPORT       PTSUNNY   88  78  72 SE15G25   29.83F HX 101
*PORT ARANSAS  PTSUNNY   87  79  78 S18G26    29.84F HX 101
*PORT LAVACA   MOSUNNY   89  76  64 S15G24    29.86S HX 100
*INGLESIDE     PTSUNNY   89  79  71 S20G25    29.82F HX 105
CORPUS CHRISTI CLOUDY    89  82  79 SE17      29.81F HX 110
CORPUS NAS     MOSUNNY   91  82  75 S20G30    29.81F HX 113
*ROBSTOWN      MOSUNNY   90  78  67 S12G21    29.81F HX 103
ALICE          MOSUNNY   95  74  50 S16       29.79F HX 105
KINGSVILLE NAS PTSUNNY   96  75  50 SE17G23   29.79F HX 108
COTULLA        SUNNY     97  73  45 SE13G21   29.76F HX 107
LAREDO         SUNNY     98  73  44 SE17G26   29.76F HX 108
$$

TXZ248>255-232000-
DEEP SOUTH TEXAS

CITY           SKY/WX    TMP DP  RH WIND       PRES   REMARKS
BROWNSVILLE    FAIR      94  78  60 S22G29    29.81F HX 110
PORT ISABEL    FAIR      92  76  59 SE22G31   29.80F HX 104
*SOUTH PADRE   NOT AVBL
HARLINGEN      SUNNY     93  78  61 S24       29.79F HX 108
*HEBBRONVILLE  SUNNY     93  70  47 S15       29.80F HX  98
MCALLEN        SUNNY     96  77  54 S16G28    29.79F HX 111
*WESLACO       NOT AVBL
FALFURRIAS     SUNNY     95  73  48 SE10      29.78F HX 104
EDINBURG       FAIR      98  72  43 SE13G22   29.78F HX 107
*ZAPATA        FAIR     N/A N/A N/A SE15G21   29.76F
$$

TXZ213>215-236>238-242>244-246-247-251-254-255-232000-
CMAN STATIONS

STATION/POSITION TIME  TEMP    WIND        PRES    WAVE
                       AIR SEA DIR/SP/G            HT/PER
                 (UTC) (F)     (DEG/KT/KT) (MB)    (FT/S)
SEA RIM ST PARK  1800   84     190/ 11/ 14 1013.9
MISSION/ARANSAS  1800          140/ 10     1012.0
PORT ARANSAS     1800   83 84  160/ 18/ 19 1010.8
$$




USA.gov is the U.S. government's official web portal to all federal, state and local government web resources and services.